Regional Weather Roundup
Issued by NWS State College, PA

Home | Current Version | Previous Version | Text Only | Print | Product List | Glossary Off
Versions: 1 2 3 4 5 6 7 8 9 10 11 12 13 14 15 16 17 18 19 20 21 22 23 24 25 26 27 28 29 30 31 32 33 34 35 36 37 38 39 40 41 42 43 44 45 46 47 48 49 50

000
ASUS41 KCTP 221310
RWRCTP

REGIONAL WEATHER ROUNDUP
NATIONAL WEATHER SERVICE STATE COLLEGE PA
800 AM EST WED NOV 22 2017

Note: "fair" indicates few or no clouds below 12,000 feet with no
significant weather and/or obstructions to visibility.

* = STATION THAT DOES NOT REPORT PRECIPITATION /E.G. RAIN...SNOW...ETC/
    THUNDER OR FOG.

PAZ002>004-007>009-013>016-020>023-029>032-221400-
WESTERN PENNSYLVANIA

CITY           SKY/WX    TMP DP  RH WIND       PRES   REMARKS
ERIE           CLOUDY    35  26  69 NW13G23   30.14R
MEADVILLE      NOT AVBL
FRANKLIN*      MIX PCPN  31  29  92 NW9G20    30.10R
NEW CASTLE     CLOUDY    33  31  92 NW7       30.15R
BEAVER COUNTY  CLOUDY   N/A N/A N/A N9G18     30.12R
BUTLER*        CLOUDY    34  31  88 NW7       30.11R
PITTSBURGH INT LGT SNOW  33  33 100 NW7       30.11R FOG
PITTSBURGH     CLOUDY    36  32  85 VRB5      30.09R
INDIANA*       CLOUDY    36  34  93 NW6       30.11R
LATROBE        CLOUDY    36  36 100 W7        30.10R
WASHINGTON CO* CLOUDY    34  30  85 NW9       30.15R
$$

PAZ004>006-010>012-017>019-024>028-033>037-041-042-045-046-049>053-221400-
CENTRAL PENNSYLVANIA

CITY           SKY/WX    TMP DP  RH WIND       PRES   REMARKS
BRADFORD       CLOUDY    32  30  92 NW17      30.02R
DUBOIS         CLOUDY    33  30  88 NW9       30.02R
CLEARFIELD     CLOUDY    37  32  82 NW7       30.03R
JOHNSTOWN      CLOUDY    33  32  96 W13       30.01R
ALTOONA        CLOUDY    41  32  70 NW12G21   30.02R
STATE COLLEGE  CLOUDY    39  32  75 NW10G23   30.01R
WILLIAMSPORT   CLOUDY    41  33  73 W9        29.97R
SELINSGROVE    CLOUDY    37  36  96 CALM      29.97R
FT INDIANTOWN  CLOUDY    47  40  76 W9        29.93S
CAPITAL CITY   CLOUDY    44  37  76 NW5       29.95R
HARRISBURG     CLOUDY    44  39  82 NW10      29.94R
YORK           CLOUDY    47  42  83 W7        29.94R
$$

PAZ038>040-043-044-047-048-054-055-060>062-067>071-221400-
EASTERN PENNSYLVANIA

CITY           SKY/WX    TMP DP  RH WIND       PRES   REMARKS
SCRANTON       CLOUDY    38  36  92 CALM      29.93R
MOUNT POCONO   CLOUDY    41  41 100 CALM      29.89S
ALLENTOWN      CLOUDY    40  35  83 SW3       29.92F
QUAKERTOWN*    CLOUDY    41  41 100 CALM      29.93R
READING        CLOUDY    42  41  96 CALM      29.93R
LANCASTER      CLOUDY    45  43  93 SW6       29.94R
COATESVILLE    CLOUDY    46  46 100 NW6       29.94R
POTTSTOWN      CLOUDY    45  45 100 CALM      29.94R
BLUE BELL      CLOUDY    46  46 100 CALM      29.93R
DOYLESTOWN     CLOUDY    45  45 100 CALM      29.90F
WILLOW GROVE   NOT AVBL
NORTH PHILA    CLOUDY    51  49  92 SW3       29.93S
PHILADELPHIA   CLOUDY    52  50  93 W5        29.92R
$$



USA.gov is the U.S. government's official web portal to all federal, state and local government web resources and services.